This is the latest recevied weather packets stored in our database for station/object OK2JF-6. If no packets are shown the sender has not sent any weather packets the latest 10 day(s).
| Time | Temp. | Humidity | Pressure | Rain* | Wind** | Luminosity | Snow |
|---|---|---|---|---|---|---|---|
| 1777378984 | 16.11° C | 33% | 1091.9 hPa | 0 mm | - | 463 W/m² | - |
| 1777378383 | 16.67° C | 33% | 1092 hPa | 0 mm | - | 99 W/m² | - |
| 1777378277 | 16.67° C | 33% | 1092 hPa | 0 mm | - | 96 W/m² | - |
| 1777377783 | 16.11° C | 33% | 1091.8 hPa | 0 mm | - | 246 W/m² | - |
| 1777377363 | 16.67° C | 33% | 1092 hPa | 0 mm | - | 491 W/m² | - |
| 1777377063 | 16.67° C | 31% | 1092 hPa | 0 mm | - | 508 W/m² | - |
| 1777377018 | 16.67° C | 31% | 1092.1 hPa | 0 mm | - | 511 W/m² | - |
| 1777376523 | 17.22° C | 32% | 1092.2 hPa | 0 mm | - | 473 W/m² | - |
| 1777376163 | 17.78° C | 30% | 1091.9 hPa | 0 mm | - | 480 W/m² | - |
| 1777375863 | 18.33° C | 29% | 1092.3 hPa | 0 mm | - | 485 W/m² | - |
| 1777375683 | 18.89° C | 29% | 1092.2 hPa | 0 mm | - | 484 W/m² | - |
| 1777375623 | 18.89° C | 29% | 1092.3 hPa | 0 mm | - | 484 W/m² | - |
| 1777375503 | 18.89° C | 29% | 1092.1 hPa | 0 mm | - | 482 W/m² | - |
| 1777375203 | 18.33° C | 31% | 1092.3 hPa | 0 mm | - | 490 W/m² | - |
| 1777375023 | 18.33° C | 30% | 1092.1 hPa | 0 mm | - | 478 W/m² | - |
| 1777374843 | 17.78° C | 31% | 1092 hPa | 0 mm | - | 483 W/m² | - |
| 1777374783 | 17.78° C | 29% | 1092.3 hPa | 0 mm | - | 445 W/m² | - |
| 1777374723 | 17.78° C | 30% | 1092.2 hPa | 0 mm | - | 454 W/m² | - |
| 1777374483 | 17.78° C | 30% | 1092.2 hPa | 0 mm | - | 455 W/m² | - |
| 1777374243 | 17.78° C | 30% | 1092.3 hPa | 0 mm | - | 493 W/m² | - |
| 1777373943 | 17.78° C | 29% | 1092.3 hPa | 0 mm | - | 479 W/m² | - |
| 1777373703 | 18.33° C | 29% | 1092.5 hPa | 0 mm | - | 448 W/m² | - |
| 1777373523 | 18.33° C | 31% | 1092.5 hPa | 0 mm | - | 464 W/m² | - |
| 1777373463 | 18.33° C | 31% | 1092.3 hPa | 0 mm | - | 466 W/m² | - |
| 1777373057 | 17.78° C | 30% | 1092.6 hPa | 0 mm | - | 427 W/m² | - |
* Rain latest hour (hover to see other rain measurements)
** Current wind speed in m/s (hover to see current wind gust speed)